SCP
0 -0 0 0 0 0 0 -0 0 0 -0 0 0 0 0 0 0 0 -0 0 0 -0 -0 -0 -0 -0 0 1 0 0 0 0 0 0 -0 -0 -0 -0 -0 0 0 0 0 0 0 0 0 0 0
0 0 -0 0 0 0 0 0 0 0 0 0 0 0 0 0 0 0 0 0 0 0 -0 -0 -0 -0 0 1 1 0 0 0 0 -0 -0 -0 -0 -0 -0 0 0 0 0 0 0 0 0 0 0
-0 -0 0 0 0 0 0 0 0 0 0 0 0 0 0 0 0 0 0 0 0 0 0 -0 -0 -0 -0 0 0 0 0 0 0 -0 -0 -0 -0 -0 -0 -0 0 0 0 0 0 0 0 0 0
0 0 0 0 0 -0 0 0 0 0 -0 0 0 0 0 0 0 0 0 0 0 0 0 -0 -0 -0 -0 0 0 -0 0 0 0 -0 -0 -0 -0 -0 -0 0 0 0 0 0 0 0 0 0 0
0 0 0 0 0 0 0 0 0 0 0 0 0 0 0 0 0 0 0 0 0 0 0 0 0 -0 -0 0 0 -0 -0 0 0 0 -0 -0 -0 -0 -0 -0 -0 0 0 0 0 0 0 0 0
0 0 0 0 0 0 0 0 0 0 0 0 0 0 0 0 0 0 -0 0 0 0 0 0 0 -0 -0 -0 -0 -0 -0 -0 -0 0 0 -0 -0 -0 -0 -0 -0 0 0 0 0 0 0 0 0
0 0 0 0 0 0 0 0 0 0 0 0 0 0 0 0 0 0 -0 0 0 0 0 0 0 0 0 0 -0 -0 -0 -0 -0 -0 -0 -0 -0 -0 -0 -0 -0 0 0 0 0 0 0 0 0
0 0 0 0 0 0 0 0 0 0 0 0 0 0 0 0 0 0 0 -0 0 0 0 0 0 0 -0 -0 0 -0 -0 -0 -0 -0 -0 0 0 0 -0 -0 -0 0 0 0 0 0 0 0 0
0 0 0 0 0 0 0 0 0 0 0 0 0 0 0 0 0 0 0 -0 0 0 0 0 0 0 0 0 -0 0 -0 -0 -0 -0 -0 0 0 -0 -0 -0 -0 -0 0 0 0 0 0 0 0
0 0 0 0 0 0 0 0 0 0 0 0 0 0 0 0 0 0 0 0 -0 0 0 0 0 0 0 0 0 -0 -0 -0 -0 -0 -0 -0 -0 0 0 -0 -0 -0 0 0 0 0 0 0 0
0 0 0 0 0 0 0 0 0 0 0 0 0 0 0 0 0 0 0 0 0 -0 0 0 0 1 0 0 0 0 0 0 -0 -0 -0 -0 0 0 0 0 0 0 -0 0 0 0 0 0 0
0 0 0 0 0 0 0 0 0 0 0 0 0 0 0 0 0 0 0 0 -0 -0 0 0 0 1 1 1 0 0 0 0 0 0 0 0 0 0 0 0 0 0 0 0 0 0 0 0 0
0 0 0 0 0 0 0 0 0 0 0 0 0 0 0 0 0 0 0 0 0 0 0 0 0 2 3 4 3 1 1 0 0 0 0 0 0 0 0 0 0 0 0 0 0 0 0 0 0
0 0 0 0 0 0 0 0 0 0 0 0 0 0 0 0 0 0 0 0 0 0 0 -0 -0 1 1 3 4 3 2 1 0 0 0 1 1 1 0 0 0 0 0 0 0 0 0 0 0
0 0 0 0 0 0 0 0 0 0 0 0 0 0 0 0 0 0 0 -0 0 -0 0 0 -2 -1 1 1 2 2 1 1 0 0 1 1 1 1 1 0 0 0 0 0 0 0 0 0 0
0 0 0 0 0 0 0 0 0 0 0 0 0 0 0 0 0 0 -0 0 0 0 0 0 0 -0 -2 1 1 1 1 0 0 0 0 1 1 1 1 0 0 0 0 0 0 0 0 0 0
0 0 0 -0 0 0 0 0 0 0 0 0 0 0 0 0 0 0 0 0 0 0 0 0 0 0 0 1 1 0 1 1 1 0 0 1 1 1 1 1 0 1 0 0 0 1 0 1 1
0 0 0 0 0 0 0 0 0 0 0 0 0 0 0 0 0 0 0 0 0 0 0 0 0 1 0 0 1 0 1 1 1 1 0 1 1 1 1 1 1 1 0 0 0 2 1 1 1
0 0 0 0 0 0 0 0 0 0 0 0 0 0 0 0 0 0 0 0 0 0 0 0 0 0 0 -0 0 1 1 3 2 0 2 1 1 1 1 1 1 0 0 0 0 2 3 1 2
0 0 0 0 0 0 0 0 0 0 0 0 0 0 0 0 0 0 0 0 0 0 0 0 0 0 0 0 0 0 0 0 0 2 3 1 1 1 1 1 0 0 0 0 0 5 2 2 2
0 0 0 0 0 0 0 0 0 -0 0 0 0 0 0 0 0 0 0 0 0 0 0 0 0 0 0 0 0 -0 -0 -0 0 1 4 2 1 1 1 0 0 0 0 1 2 3 3 2 2
0 0 0 0 0 0 0 0 0 0 0 0 0 0 0 0 0 0 0 0 0 0 0 0 0 0 0 0 0 0 0 0 0 1 2 1 2 -0 -1 0 0 1 1 0 3 3 3 4 2
0 0 0 0 0 0 0 0 0 -0 0 0 0 0 0 0 0 0 0 0 0 0 0 0 0 0 0 0 0 0 0 0 -0 0 1 0 1 2 -0 1 -0 0 1 1 3 3 3 4 2
0 0 0 0 0 0 0 0 0 0 0 0 0 0 0 0 0 0 0 0 0 0 0 0 0 0 0 0 0 0 0 0 0 0 1 3 1 1 -0 -1 1 1 1 0 3 5 4 4 4
0 0 0 0 0 0 0 0 0 0 0 0 0 0 0 0 0 0 0 0 0 0 0 0 0 0 0 0 0 0 0 0 0 0 0 1 1 1 0 0 6 0 1 1 3 5 6 6 4
-0 0 0 0 0 0 0 0 0 0 0 0 0 0 0 0 0 0 0 0 0 0 0 0 0 0 0 0 0 0 0 0 0 0 0 0 0 1 2 1 3 -0 2 3 3 5 5 6 5
0 0 0 0 0 0 0 0 0 0 0 0 0 0 0 0 0 0 0 0 0 0 0 0 0 0 0 0 0 0 0 0 0 0 1 0 0 0 2 2 4 3 3 3 6 6 6 7 8
0 0 0 0 0 0 0 0 0 0 0 0 0 0 0 0 0 0 0 0 0 0 0 0 0 0 0 0 0 0 0 0 0 0 0 0 1 2 2 3 3 5 3 5 6 7 8 7 6
0 0 0 0 0 0 0 0 0 0 0 0 0 0 0 0 0 0 0 0 0 0 0 0 0 0 0 0 0 0 0 0 0 0 0 0 1 1 1 2 4 5 4 7 7 8 7 6 5
0 0 0 0 0 0 0 0 0 0 0 0 0 0 0 0 0 0 0 0 0 0 0 0 0 0 0 0 0 0 0 0 0 0 0 0 1 1 1 2 1 5 5 7 6 5 5 5 5
Wind_Speed_500mb
18 19 11 8 13 16 32 37 10 1 21 4 14 17 21 30 28 11 14 12 5 25 31 34 38 40 48 50 49 46 43 40 36 33 33 32 30 30 28 26 23 21 18 16 15 14 12 10 11
11 15 8 4 1 30 28 33 13 25 12 11 16 15 20 20 19 17 30 27 1 26 31 41 39 44 51 54 54 50 45 41 37 34 33 32 30 28 26 24 21 18 16 14 12 11 10 8 8
11 15 26 11 17 25 35 10 11 2 8 14 9 4 12 9 21 29 34 25 9 27 35 44 44 47 51 55 56 52 48 43 39 36 34 31 29 26 23 21 19 16 13 11 9 8 8 7 5
11 22 25 21 29 38 53 54 13 8 20 10 9 13 7 11 26 35 39 27 22 33 38 47 49 51 54 57 58 55 49 45 40 37 35 31 27 24 21 18 16 13 11 8 6 5 4 4 3
18 24 24 31 36 33 32 49 32 25 14 12 6 20 5 5 28 39 34 22 22 37 40 50 55 54 55 57 58 57 52 47 42 39 36 31 28 24 20 18 15 13 11 8 7 7 7 6 6
34 34 27 31 40 31 32 27 47 35 43 19 8 17 19 9 33 40 38 17 18 39 41 48 60 60 59 58 58 56 52 48 45 42 39 33 28 24 20 18 16 15 12 10 11 12 13 14 12
39 29 38 42 38 32 24 35 43 35 35 63 17 10 27 12 32 36 34 21 15 37 44 50 64 64 62 59 58 58 55 51 47 43 40 36 30 26 22 20 19 18 16 16 16 17 19 19 20
46 30 51 42 37 42 25 27 36 36 39 57 66 20 29 21 33 31 29 22 8 35 45 37 63 68 66 62 59 57 56 54 51 46 41 37 32 29 27 25 25 24 20 22 21 22 23 24 26
43 34 38 49 47 38 23 38 36 41 46 51 57 52 22 20 31 30 27 21 6 30 40 37 43 50 57 55 62 59 57 54 52 48 45 39 35 34 34 32 32 29 26 27 27 28 28 29 30
40 31 50 44 41 39 38 44 23 27 28 44 50 59 38 17 30 29 27 21 8 28 37 39 39 43 45 44 47 61 59 55 53 50 47 44 39 28 27 31 33 35 33 32 33 33 34 35 33
46 44 44 47 48 51 44 36 31 29 27 30 40 48 64 23 33 29 29 19 21 25 34 39 36 41 43 43 41 44 47 50 52 52 47 40 35 30 27 26 36 35 38 38 36 38 40 39 28
40 51 48 48 55 45 34 40 48 41 46 34 23 39 54 52 33 30 28 21 10 14 31 35 31 36 42 41 43 38 42 40 40 43 53 46 39 35 32 29 26 29 21 28 23 26 28 31 29
35 36 46 50 36 49 42 37 47 57 34 46 39 40 44 56 32 28 19 22 12 1 15 30 39 45 44 58 39 43 41 44 40 39 42 48 39 37 36 33 27 25 22 23 22 24 29 30 31
33 26 39 47 32 46 40 49 58 66 52 56 49 48 48 55 46 35 16 25 17 10 11 10 31 39 47 59 50 49 52 40 43 38 41 49 46 42 37 33 30 27 27 24 23 25 27 30 29
27 33 35 38 42 43 45 51 54 58 58 59 46 42 44 56 68 69 53 30 21 20 28 8 9 21 15 39 53 59 40 49 38 39 43 46 51 48 44 31 31 28 26 32 30 33 30 30 28
33 36 36 36 46 47 35 53 44 55 56 71 35 49 33 40 46 41 47 27 27 19 28 44 25 8 9 10 35 40 46 48 47 44 44 54 57 56 49 41 35 30 32 29 25 28 25 26 25
32 32 37 39 16 15 36 43 37 54 24 27 37 38 38 37 30 29 25 29 24 26 26 33 43 49 10 11 13 29 44 45 51 45 46 48 57 61 57 57 44 48 36 38 22 38 37 29 26
29 32 27 34 18 27 33 41 36 42 38 42 44 48 44 37 30 17 26 22 26 20 34 35 34 59 51 48 23 28 30 32 39 43 46 48 56 58 62 55 54 57 45 38 26 52 33 30 27
28 33 34 33 20 27 32 40 41 47 51 47 45 53 52 47 37 25 19 16 12 22 34 34 42 42 67 83 45 46 21 19 28 30 31 44 59 65 61 60 64 56 55 55 40 53 45 39 30
29 34 35 33 31 25 37 43 42 43 48 54 54 55 59 54 48 39 33 23 15 15 33 37 41 39 65 59 82 73 61 52 35 27 21 26 44 50 62 68 61 59 49 60 57 62 42 38 29
33 35 34 36 31 33 38 51 49 52 62 58 55 42 36 42 41 36 32 27 16 10 19 26 47 53 40 65 72 73 68 83 79 71 52 27 32 40 56 68 66 64 64 69 68 56 53 38 29
31 27 28 22 28 29 35 35 38 37 24 26 23 32 21 31 23 23 29 28 20 13 17 16 21 34 37 39 63 66 65 79 72 60 64 54 44 49 61 56 67 67 67 73 60 54 63 46 36
33 32 35 28 36 39 43 27 35 40 37 23 18 21 19 27 31 36 31 22 18 15 16 19 25 28 28 38 37 40 70 104 92 85 90 76 61 53 55 64 72 77 78 66 57 54 53 54 43
26 32 32 37 36 35 45 39 35 30 29 27 20 25 15 24 22 23 23 22 20 20 18 17 20 28 32 40 47 49 53 63 67 72 81 86 82 76 78 87 74 76 77 70 71 59 61 56 47
35 32 27 33 29 33 37 12 21 11 5 9 31 21 17 28 28 28 26 25 22 22 22 21 22 25 24 29 34 41 55 61 68 73 64 59 79 76 84 95 100 95 92 80 73 62 60 61 53
42 27 24 28 32 34 9 19 7 5 3 18 10 24 25 28 29 28 23 29 32 29 28 25 24 25 26 31 31 37 45 51 53 58 69 69 66 64 71 87 85 97 92 84 81 69 67 65 54
33 36 31 37 38 33 44 53 44 29 19 16 25 22 21 23 26 21 30 33 33 33 34 32 30 30 27 29 38 38 43 55 57 56 55 51 64 69 71 72 76 77 86 78 73 72 70 62 58
35 35 27 14 28 43 37 41 27 22 28 23 16 21 30 27 34 37 38 44 43 37 37 39 35 37 37 36 36 41 43 51 56 61 71 73 75 59 68 65 74 81 73 76 67 63 62 64 57
28 37 36 37 28 23 30 23 18 16 13 10 10 22 25 33 37 45 51 50 46 44 44 43 44 43 43 44 45 45 47 49 53 58 66 75 77 84 80 77 66 83 72 64 64 64 59 57 49
36 34 30 15 34 31 33 41 28 14 4 4 13 31 42 41 45 48 49 52 49 49 49 49 42 45 47 47 51 55 51 50 53 57 63 68 73 76 82 79 77 73 68 62 70 71 53 49 53
Wind_Direction_500mb
343 333 309 358 267 236 245 231 243 131 213 58 343 285 287 319 341 29 29 3 117 175 182 163 161 167 164 162 159 162 163 162 157 154 155 151 149 147 146 146 144 142 140 136 127 118 108 104 94
325 306 291 242 263 259 223 238 144 237 56 325 264 246 241 280 27 2 335 358 278 187 198 170 169 170 169 166 163 166 169 166 164 164 164 159 158 156 154 152 150 148 146 145 138 129 122 111 91
312 266 264 229 196 234 272 123 240 168 97 269 269 358 324 343 357 337 318 306 263 198 197 179 172 173 174 172 169 171 172 172 171 172 171 169 166 165 164 162 160 161 158 161 151 146 142 137 126
263 241 246 253 238 218 251 280 260 312 228 243 261 274 128 72 353 329 320 301 247 207 194 187 176 175 177 174 174 176 179 178 180 181 179 177 176 178 177 178 179 177 175 182 187 189 189 183 164
243 261 254 239 249 244 211 255 275 244 244 248 238 264 273 27 346 340 334 316 222 206 198 194 180 178 181 180 178 179 184 185 189 189 188 188 188 191 193 195 199 202 201 208 235 253 262 262 262
234 234 247 249 243 231 237 248 243 245 274 246 268 259 262 61 353 348 346 335 220 200 196 207 185 179 184 187 185 185 189 192 195 196 196 198 203 206 209 215 220 222 230 237 252 261 269 272 268
243 244 241 252 258 257 210 222 249 227 241 277 287 301 281 5 341 342 347 340 207 201 194 213 192 185 188 191 193 193 195 198 200 202 201 205 210 221 228 233 239 239 245 251 255 259 264 268 270
241 247 258 255 254 255 241 224 226 249 233 228 276 248 258 3 331 333 343 348 222 198 194 200 197 190 191 193 201 200 203 202 204 205 207 212 217 226 237 244 248 251 252 257 262 264 264 266 270
235 250 248 246 252 252 223 242 211 248 244 254 223 265 271 306 327 335 339 348 229 195 196 202 194 196 195 197 204 206 208 209 210 210 213 218 224 234 242 246 253 256 257 260 265 267 266 264 265
231 238 244 258 260 265 244 238 212 228 241 255 225 234 261 290 325 330 332 348 304 210 202 202 198 198 198 197 209 211 214 215 216 218 222 221 227 231 244 252 256 259 260 261 266 268 267 266 265
227 245 263 262 262 267 271 265 216 236 240 236 249 237 241 280 303 313 319 343 322 222 211 206 200 205 203 200 207 213 211 217 221 222 224 230 225 231 242 235 266 264 259 263 270 270 266 265 258
247 252 263 268 273 277 263 273 268 208 239 244 265 276 238 249 283 304 302 317 329 247 216 211 205 204 209 203 212 211 209 209 213 224 228 222 233 227 223 235 236 268 252 278 249 262 279 275 259
246 267 269 271 263 274 268 253 260 264 232 244 260 272 260 237 249 287 305 308 292 259 213 223 226 222 212 204 205 209 213 210 213 215 232 227 223 229 232 234 232 234 251 253 258 255 253 263 261
261 280 277 270 245 255 255 254 255 254 250 251 242 252 251 243 235 239 264 308 306 222 185 197 229 226 222 212 205 211 209 213 215 217 220 244 229 226 229 244 236 235 243 248 255 264 259 266 265
265 268 256 253 254 255 257 259 254 260 258 256 227 241 249 237 240 254 256 261 255 251 214 96 164 241 246 232 226 225 231 217 224 225 225 233 244 223 231 236 242 239 243 245 254 254 260 267 268
254 255 259 249 232 233 240 259 259 253 249 240 242 255 253 257 253 246 244 231 239 232 217 217 203 146 348 280 236 234 239 226 232 225 232 243 248 250 244 236 237 239 238 241 282 300 258 261 270
233 254 259 251 182 236 244 257 264 255 224 252 248 246 256 262 264 239 214 220 196 230 239 233 227 229 239 292 313 258 247 251 239 235 237 233 246 248 250 252 244 245 246 247 258 277 258 249 258
280 260 226 263 254 193 245 258 264 259 215 232 247 250 249 251 249 240 196 192 219 212 242 240 232 227 245 261 300 305 259 235 251 239 241 248 245 245 245 244 243 252 247 236 257 263 257 254 250
317 291 286 290 288 281 278 274 273 269 263 255 247 252 248 245 239 230 206 194 223 219 220 232 251 216 244 261 253 257 276 281 285 239 243 242 241 245 252 255 248 253 242 244 242 256 259 255 258
267 271 268 269 267 276 273 271 273 268 260 255 256 253 249 238 231 226 210 198 202 231 216 221 229 247 224 249 259 259 253 259 248 260 254 255 265 262 253 252 244 249 243 239 238 250 256 258 248
254 263 276 280 302 292 281 268 257 254 243 246 249 252 254 255 228 214 211 218 215 202 231 210 216 231 248 233 240 259 265 264 256 256 265 271 292 282 277 270 260 255 245 243 246 243 252 235 240
274 277 281 290 274 273 287 291 289 289 233 213 234 250 232 221 204 203 211 213 218 208 250 241 238 230 226 239 231 243 265 271 255 252 252 258 258 280 290 294 267 254 245 242 239 244 253 245 227
285 298 286 270 276 281 269 264 270 251 245 238 186 206 198 198 194 203 207 219 225 227 228 248 253 259 254 245 243 230 233 258 265 253 252 263 273 261 266 286 288 265 244 240 222 243 254 247 235
286 281 269 264 259 256 260 251 262 267 193 187 165 193 207 210 225 218 220 225 235 231 242 258 259 270 269 263 260 255 254 253 251 256 243 243 250 264 255 276 277 274 252 235 241 239 255 246 242
243 256 263 259 244 253 254 251 278 354 139 282 179 229 273 245 226 226 225 240 249 254 251 251 254 256 265 269 275 267 266 263 255 252 246 236 245 250 248 250 258 264 251 241 236 244 245 249 236
268 247 275 281 284 292 339 255 240 2 294 195 283 269 263 257 247 238 245 268 270 265 260 263 254 252 267 274 277 276 262 263 261 258 246 238 227 228 247 245 246 256 250 240 238 243 251 238 240
261 263 265 284 274 277 278 274 275 178 182 217 239 239 239 244 245 259 267 272 273 267 269 271 270 270 265 269 275 274 274 264 251 245 240 245 245 231 242 246 245 251 242 233 233 239 238 233 243
265 280 265 253 268 262 268 267 266 155 189 184 200 239 245 253 266 255 279 282 273 269 266 269 268 275 278 279 271 267 269 266 266 262 256 248 236 232 238 242 246 240 234 224 231 230 229 231 234
243 236 241 255 235 262 277 283 98 103 243 221 278 286 285 279 271 270 283 279 270 270 270 267 270 277 277 279 279 267 263 263 258 257 260 259 254 242 235 237 231 236 228 225 225 216 217 225 218
269 260 219 260 260 250 261 262 136 202 240 256 253 248 256 275 285 283 278 275 274 277 273 268 265 273 279 281 280 274 270 263 258 256 255 256 254 251 245 242 241 233 225 218 219 218 212 216 211
Wind_Speed_850mb
18 19 11 8 13 16 32 37 10 1 21 4 14 17 21 30 28 11 14 12 5 25 31 34 38 40 48 50 49 46 43 40 36 33 33 32 30 30 28 26 23 21 18 16 15 14 12 10 11
11 15 8 4 1 30 28 33 13 25 12 11 16 15 20 20 19 17 30 27 1 26 31 41 39 44 51 54 54 50 45 41 37 34 33 32 30 28 26 24 21 18 16 14 12 11 10 8 8
11 15 26 11 17 25 35 10 11 2 8 14 9 4 12 9 21 29 34 25 9 27 35 44 44 47 51 55 56 52 48 43 39 36 34 31 29 26 23 21 19 16 13 11 9 8 8 7 5
11 22 25 21 29 38 53 54 13 8 20 10 9 13 7 11 26 35 39 27 22 33 38 47 49 51 54 57 58 55 49 45 40 37 35 31 27 24 21 18 16 13 11 8 6 5 4 4 3
18 24 24 31 36 33 32 49 32 25 14 12 6 20 5 5 28 39 34 22 22 37 40 50 55 54 55 57 58 57 52 47 42 39 36 31 28 24 20 18 15 13 11 8 7 7 7 6 6
34 34 27 31 40 31 32 27 47 35 43 19 8 17 19 9 33 40 38 17 18 39 41 48 60 60 59 58 58 56 52 48 45 42 39 33 28 24 20 18 16 15 12 10 11 12 13 14 12
39 29 38 42 38 32 24 35 43 35 35 63 17 10 27 12 32 36 34 21 15 37 44 50 64 64 62 59 58 58 55 51 47 43 40 36 30 26 22 20 19 18 16 16 16 17 19 19 20
46 30 51 42 37 42 25 27 36 36 39 57 66 20 29 21 33 31 29 22 8 35 45 37 63 68 66 62 59 57 56 54 51 46 41 37 32 29 27 25 25 24 20 22 21 22 23 24 26
43 34 38 49 47 38 23 38 36 41 46 51 57 52 22 20 31 30 27 21 6 30 40 37 43 50 57 55 62 59 57 54 52 48 45 39 35 34 34 32 32 29 26 27 27 28 28 29 30
40 31 50 44 41 39 38 44 23 27 28 44 50 59 38 17 30 29 27 21 8 28 37 39 39 43 45 44 47 61 59 55 53 50 47 44 39 28 27 31 33 35 33 32 33 33 34 35 33
46 44 44 47 48 51 44 36 31 29 27 30 40 48 64 23 33 29 29 19 21 25 34 39 36 41 43 43 41 44 47 50 52 52 47 40 35 30 27 26 36 35 38 38 36 38 40 39 28
40 51 48 48 55 45 34 40 48 41 46 34 23 39 54 52 33 30 28 21 10 14 31 35 31 36 42 41 43 38 42 40 40 43 53 46 39 35 32 29 26 29 21 28 23 26 28 31 29
35 36 46 50 36 49 42 37 47 57 34 46 39 40 44 56 32 28 19 22 12 1 15 30 39 45 44 58 39 43 41 44 40 39 42 48 39 37 36 33 27 25 22 23 22 24 29 30 31
33 26 39 47 32 46 40 49 58 66 52 56 49 48 48 55 46 35 16 25 17 10 11 10 31 39 47 59 50 49 52 40 43 38 41 49 46 42 37 33 30 27 27 24 23 25 27 30 29
27 33 35 38 42 43 45 51 54 58 58 59 46 42 44 56 68 69 53 30 21 20 28 8 9 21 15 39 53 59 40 49 38 39 43 46 51 48 44 31 31 28 26 32 30 33 30 30 28
33 36 36 36 46 47 35 53 44 55 56 71 35 49 33 40 46 41 47 27 27 19 28 44 25 8 9 10 35 40 46 48 47 44 44 54 57 56 49 41 35 30 32 29 25 28 25 26 25
32 32 37 39 16 15 36 43 37 54 24 27 37 38 38 37 30 29 25 29 24 26 26 33 43 49 10 11 13 29 44 45 51 45 46 48 57 61 57 57 44 48 36 38 22 38 37 29 26
29 32 27 34 18 27 33 41 36 42 38 42 44 48 44 37 30 17 26 22 26 20 34 35 34 59 51 48 23 28 30 32 39 43 46 48 56 58 62 55 54 57 45 38 26 52 33 30 27
28 33 34 33 20 27 32 40 41 47 51 47 45 53 52 47 37 25 19 16 12 22 34 34 42 42 67 83 45 46 21 19 28 30 31 44 59 65 61 60 64 56 55 55 40 53 45 39 30
29 34 35 33 31 25 37 43 42 43 48 54 54 55 59 54 48 39 33 23 15 15 33 37 41 39 65 59 82 73 61 52 35 27 21 26 44 50 62 68 61 59 49 60 57 62 42 38 29
33 35 34 36 31 33 38 51 49 52 62 58 55 42 36 42 41 36 32 27 16 10 19 26 47 53 40 65 72 73 68 83 79 71 52 27 32 40 56 68 66 64 64 69 68 56 53 38 29
31 27 28 22 28 29 35 35 38 37 24 26 23 32 21 31 23 23 29 28 20 13 17 16 21 34 37 39 63 66 65 79 72 60 64 54 44 49 61 56 67 67 67 73 60 54 63 46 36
33 32 35 28 36 39 43 27 35 40 37 23 18 21 19 27 31 36 31 22 18 15 16 19 25 28 28 38 37 40 70 104 92 85 90 76 61 53 55 64 72 77 78 66 57 54 53 54 43
26 32 32 37 36 35 45 39 35 30 29 27 20 25 15 24 22 23 23 22 20 20 18 17 20 28 32 40 47 49 53 63 67 72 81 86 82 76 78 87 74 76 77 70 71 59 61 56 47
35 32 27 33 29 33 37 12 21 11 5 9 31 21 17 28 28 28 26 25 22 22 22 21 22 25 24 29 34 41 55 61 68 73 64 59 79 76 84 95 100 95 92 80 73 62 60 61 53
42 27 24 28 32 34 9 19 7 5 3 18 10 24 25 28 29 28 23 29 32 29 28 25 24 25 26 31 31 37 45 51 53 58 69 69 66 64 71 87 85 97 92 84 81 69 67 65 54
33 36 31 37 38 33 44 53 44 29 19 16 25 22 21 23 26 21 30 33 33 33 34 32 30 30 27 29 38 38 43 55 57 56 55 51 64 69 71 72 76 77 86 78 73 72 70 62 58
35 35 27 14 28 43 37 41 27 22 28 23 16 21 30 27 34 37 38 44 43 37 37 39 35 37 37 36 36 41 43 51 56 61 71 73 75 59 68 65 74 81 73 76 67 63 62 64 57
28 37 36 37 28 23 30 23 18 16 13 10 10 22 25 33 37 45 51 50 46 44 44 43 44 43 43 44 45 45 47 49 53 58 66 75 77 84 80 77 66 83 72 64 64 64 59 57 49
36 34 30 15 34 31 33 41 28 14 4 4 13 31 42 41 45 48 49 52 49 49 49 49 42 45 47 47 51 55 51 50 53 57 63 68 73 76 82 79 77 73 68 62 70 71 53 49 53
Wind_Direction_850mb
343 333 309 358 267 236 245 231 243 131 213 58 343 285 287 319 341 29 29 3 117 175 182 163 161 167 164 162 159 162 163 162 157 154 155 151 149 147 146 146 144 142 140 136 127 118 108 104 94
325 306 291 242 263 259 223 238 144 237 56 325 264 246 241 280 27 2 335 358 278 187 198 170 169 170 169 166 163 166 169 166 164 164 164 159 158 156 154 152 150 148 146 145 138 129 122 111 91
312 266 264 229 196 234 272 123 240 168 97 269 269 358 324 343 357 337 318 306 263 198 197 179 172 173 174 172 169 171 172 172 171 172 171 169 166 165 164 162 160 161 158 161 151 146 142 137 126
263 241 246 253 238 218 251 280 260 312 228 243 261 274 128 72 353 329 320 301 247 207 194 187 176 175 177 174 174 176 179 178 180 181 179 177 176 178 177 178 179 177 175 182 187 189 189 183 164
243 261 254 239 249 244 211 255 275 244 244 248 238 264 273 27 346 340 334 316 222 206 198 194 180 178 181 180 178 179 184 185 189 189 188 188 188 191 193 195 199 202 201 208 235 253 262 262 262
234 234 247 249 243 231 237 248 243 245 274 246 268 259 262 61 353 348 346 335 220 200 196 207 185 179 184 187 185 185 189 192 195 196 196 198 203 206 209 215 220 222 230 237 252 261 269 272 268
243 244 241 252 258 257 210 222 249 227 241 277 287 301 281 5 341 342 347 340 207 201 194 213 192 185 188 191 193 193 195 198 200 202 201 205 210 221 228 233 239 239 245 251 255 259 264 268 270
241 247 258 255 254 255 241 224 226 249 233 228 276 248 258 3 331 333 343 348 222 198 194 200 197 190 191 193 201 200 203 202 204 205 207 212 217 226 237 244 248 251 252 257 262 264 264 266 270
235 250 248 246 252 252 223 242 211 248 244 254 223 265 271 306 327 335 339 348 229 195 196 202 194 196 195 197 204 206 208 209 210 210 213 218 224 234 242 246 253 256 257 260 265 267 266 264 265
231 238 244 258 260 265 244 238 212 228 241 255 225 234 261 290 325 330 332 348 304 210 202 202 198 198 198 197 209 211 214 215 216 218 222 221 227 231 244 252 256 259 260 261 266 268 267 266 265
227 245 263 262 262 267 271 265 216 236 240 236 249 237 241 280 303 313 319 343 322 222 211 206 200 205 203 200 207 213 211 217 221 222 224 230 225 231 242 235 266 264 259 263 270 270 266 265 258
247 252 263 268 273 277 263 273 268 208 239 244 265 276 238 249 283 304 302 317 329 247 216 211 205 204 209 203 212 211 209 209 213 224 228 222 233 227 223 235 236 268 252 278 249 262 279 275 259
246 267 269 271 263 274 268 253 260 264 232 244 260 272 260 237 249 287 305 308 292 259 213 223 226 222 212 204 205 209 213 210 213 215 232 227 223 229 232 234 232 234 251 253 258 255 253 263 261
261 280 277 270 245 255 255 254 255 254 250 251 242 252 251 243 235 239 264 308 306 222 185 197 229 226 222 212 205 211 209 213 215 217 220 244 229 226 229 244 236 235 243 248 255 264 259 266 265
265 268 256 253 254 255 257 259 254 260 258 256 227 241 249 237 240 254 256 261 255 251 214 96 164 241 246 232 226 225 231 217 224 225 225 233 244 223 231 236 242 239 243 245 254 254 260 267 268
254 255 259 249 232 233 240 259 259 253 249 240 242 255 253 257 253 246 244 231 239 232 217 217 203 146 348 280 236 234 239 226 232 225 232 243 248 250 244 236 237 239 238 241 282 300 258 261 270
233 254 259 251 182 236 244 257 264 255 224 252 248 246 256 262 264 239 214 220 196 230 239 233 227 229 239 292 313 258 247 251 239 235 237 233 246 248 250 252 244 245 246 247 258 277 258 249 258
280 260 226 263 254 193 245 258 264 259 215 232 247 250 249 251 249 240 196 192 219 212 242 240 232 227 245 261 300 305 259 235 251 239 241 248 245 245 245 244 243 252 247 236 257 263 257 254 250
317 291 286 290 288 281 278 274 273 269 263 255 247 252 248 245 239 230 206 194 223 219 220 232 251 216 244 261 253 257 276 281 285 239 243 242 241 245 252 255 248 253 242 244 242 256 259 255 258
267 271 268 269 267 276 273 271 273 268 260 255 256 253 249 238 231 226 210 198 202 231 216 221 229 247 224 249 259 259 253 259 248 260 254 255 265 262 253 252 244 249 243 239 238 250 256 258 248
254 263 276 280 302 292 281 268 257 254 243 246 249 252 254 255 228 214 211 218 215 202 231 210 216 231 248 233 240 259 265 264 256 256 265 271 292 282 277 270 260 255 245 243 246 243 252 235 240
274 277 281 290 274 273 287 291 289 289 233 213 234 250 232 221 204 203 211 213 218 208 250 241 238 230 226 239 231 243 265 271 255 252 252 258 258 280 290 294 267 254 245 242 239 244 253 245 227
285 298 286 270 276 281 269 264 270 251 245 238 186 206 198 198 194 203 207 219 225 227 228 248 253 259 254 245 243 230 233 258 265 253 252 263 273 261 266 286 288 265 244 240 222 243 254 247 235
286 281 269 264 259 256 260 251 262 267 193 187 165 193 207 210 225 218 220 225 235 231 242 258 259 270 269 263 260 255 254 253 251 256 243 243 250 264 255 276 277 274 252 235 241 239 255 246 242
243 256 263 259 244 253 254 251 278 354 139 282 179 229 273 245 226 226 225 240 249 254 251 251 254 256 265 269 275 267 266 263 255 252 246 236 245 250 248 250 258 264 251 241 236 244 245 249 236
268 247 275 281 284 292 339 255 240 2 294 195 283 269 263 257 247 238 245 268 270 265 260 263 254 252 267 274 277 276 262 263 261 258 246 238 227 228 247 245 246 256 250 240 238 243 251 238 240
261 263 265 284 274 277 278 274 275 178 182 217 239 239 239 244 245 259 267 272 273 267 269 271 270 270 265 269 275 274 274 264 251 245 240 245 245 231 242 246 245 251 242 233 233 239 238 233 243
265 280 265 253 268 262 268 267 266 155 189 184 200 239 245 253 266 255 279 282 273 269 266 269 268 275 278 279 271 267 269 266 266 262 256 248 236 232 238 242 246 240 234 224 231 230 229 231 234
243 236 241 255 235 262 277 283 98 103 243 221 278 286 285 279 271 270 283 279 270 270 270 267 270 277 277 279 279 267 263 263 258 257 260 259 254 242 235 237 231 236 228 225 225 216 217 225 218
269 260 219 260 260 250 261 262 136 202 240 256 253 248 256 275 285 283 278 275 274 277 273 268 265 273 279 281 280 274 270 263 258 256 255 256 254 251 245 242 241 233 225 218 219 218 212 216 211